Lulu Pass Weather Station

This weather station is located at 10020ft near Lulu Pass at the head of Fisher Creek. This data can be used with temperature and precipitation data from the Fisher Creek SNOTEL site. This data can be viewed directly on datagarrison.com

Elevation
10020ft
Jump to table bottom
Date Time Temperature
deg F
RH, % Wind Speed Wind Gust Wind Direction
02/29/24 07:00 14.1 95 11 22 SW - 208
02/29/24 06:00 14.3 94 10 24 SW - 234
02/29/24 05:00 14.9 95 14 37 SW - 225
02/29/24 04:00 14.6 95 6 24 SW - 246
02/29/24 03:00 13.6 94 10 27 SW - 230
02/29/24 02:00 13.0 94 11 26 SW - 234
02/29/24 01:00 12.3 94 11 23 SW - 212
02/29/24 00:00 11.4 93 16 26 SW - 209
02/28/24 23:00 11.4 93 12 25 SW - 211
02/28/24 22:00 11.0 93 9 20 S - 192
02/28/24 21:00 10.6 93 8 18 SW - 208
02/28/24 20:00 10.0 93 6 17 SW - 229
02/28/24 19:00 9.8 93 6 19 SW - 244
02/28/24 18:00 10.0 93 7 15 W - 248
02/28/24 17:00 11.6 93 11 20 NW - 293
02/28/24 16:00 11.9 93 8 19 W - 263
02/28/24 15:00 11.7 93 8 17 W - 270
02/28/24 14:00 11.6 93 11 24 W - 289
02/28/24 13:00 10.7 92 10 24 W - 281
02/28/24 12:00 9.4 92 13 31 W - 272
02/28/24 11:00 8.2 91 11 24 W - 261
02/28/24 10:00 6.5 91 10 28 W - 261
02/28/24 09:00 5.1 91 13 28 W - 261
02/28/24 08:00 3.9 91 15 32 SW - 244
02/28/24 07:00 2.8 90 13 31 W - 254
02/28/24 06:00 1.5 90 10 24 SW - 243
02/28/24 05:00 1.2 90 10 24 W - 284
02/28/24 04:00 0.5 90 10 31 W - 253
02/28/24 03:00 -0.4 89 13 34 W - 260
02/28/24 02:00 -0.9 89 15 37 W - 251
02/28/24 01:00 -1.9 89 14 34 SW - 246
02/28/24 00:00 -3.4 88 11 25 W - 256
02/27/24 23:00 -3.5 88 10 21 W - 261
02/27/24 22:00 -4.0 88 9 20 W - 278
02/27/24 21:00 -3.9 88 14 27 W - 291
02/27/24 20:00 -3.5 88 17 33 NW - 293
02/27/24 19:00 -3.2 89 17 45 NW - 296
02/27/24 18:00 -1.8 89 20 106 NW - 302
02/27/24 17:00 -0.6 89 20 40 NW - 305
02/27/24 16:00 0.2 89 10 20 W - 267
02/27/24 15:00 0.0 89 13 27 W - 277
02/27/24 14:00 0.8 89 10 25 W - 261
02/27/24 13:00 0.7 89 10 20 SW - 244
02/27/24 12:00 2.2 89 7 15 W - 257
02/27/24 11:00 1.7 89 7 15 W - 256
02/27/24 10:00 -0.1 89 8 17 W - 285
02/27/24 09:00 -0.9 89 7 12 NW - 306
02/27/24 08:00 -3.2 88 6 10 NW - 305
02/27/24 07:00 -2.6 89 9 13 NW - 326
02/27/24 06:00 -1.6 89 12 17 NW - 333